Погода в Норске

Погода в Норске : погода сейчас, прогноз погоды и архив. Всё, что Вы хотите узнать о погоде в Норске!

Хотите узнать прогноз погоды в Норске? Тогда Вам сюда: Погода в Норске

Поиск расширенной информации на нашем сайте:

Другие новости

Новости СМИ2

Главная страница сайта

Новости сайта

03.07.2017

Напоминаем, что на нашем специализированном сайте Метеоцентр.Азия вы можете получить высокодетализированные автоматические прогнозы погоды по пунктам России, СНГ и мира в авиационном формате (включающие направление и скорость ветра, видимость, явления погоды, количество и форму облачности, нижнюю и верхнюю границу облачности).


Погода в Норске - сегодня

Время (UTC), дата Ветер
(°,м/с) 
Видим.   Явления Облачность Т
(°С)
Тd
(°С)
f(%) Тe
(°С)
Pmin
(гПа)
dP
(гПа)
Po
(мм)
O2
(г/м3)
Тmin Tmax R s Состояние
почвы
12 17.02.18 тихо ()   20000 м    ясно 
-26 -29.6 72 -26  1020.7  1.2  744  333    -12.8       
15 17.02.18 тихо ()   20000 м    ясно 
-29.3 -32.3 75 -29  1021.4  0.4  744  338           
18 17.02.18 тихо ()   20000 м    ясно 
-32.2 -35.7 71 -32  1022.2  0.3  744  342           
21 17.02.18 тихо ()   20000 м    ясно 
-33.8 -37.4 70 -34  1022.4  -0.1  744  344           
00 18.02.18 тихо ()   20000 м    ясно 
-28.4 -33.8 60 -28  1022.5  0.9  745  337  -34.8      17  равномерный
сухой снег
100% 
03 18.02.18 090 (В) 20000 м    ясно 
-17.2 -25.9 47 -17  1019.9  -1.2  744  322           
06 18.02.18 160 (Ю) 20000 м    8/4 1000 м верхняя 
[Sc|Ci fib]
-11.3 -24.4 33 -11  1017.5  -1.8  743  314           
09 18.02.18 тихо ()   20000 м    9/6 1000 м средняя, верхняя 
[Sc|Ac trans|Ci fib]
-15.7 -24 49 -16  1017.9  -0.1  743  319           
15 18.02.18 тихо ()   20000 м    4/0 средняя, верхняя 
[Ac lent|Ci fib]
-24.4 -27 79 -24  1017.5  -1  742  330           
18 18.02.18 290 (З) 20000 м    ясно 
-25.5 -28.5 76 -26  1017.4  -0.4  741  331           
21 18.02.18 тихо ()   20000 м    ясно 
-28.7 -31.5 77 -29  1017  -0.7  741  335           
00 19.02.18 тихо ()   4000 м  слаб. снег  10/0 средняя 
[Ac As]
-25.4 -29 72 -25  1016.4  0.1  741  331  -29.9    0.0  17  равномерный
сухой снег
100% 
03 19.02.18 710 () 20000 м  снег  9/0 средняя, верхняя 
[Ac trans|Ci fib]
-14.2 -21.9 52 -14  1041.7  -0.7  740  316           
06 19.02.18 290 (З) 20000 м  {снег}  10/6 1000 м кучево-дожд., верхняя 
[Cb cap|Ci fib]
-13.9 -22.1 50 -16  1014.7  0.3  741  316           
09 19.02.18 270 (З) 20000 м    10/0 средняя 
[Ac As]
-15.4 -20.9 63 -15  1015.3  0.4  741  318           
12 19.02.18 290 (З) 4000 м  слаб. снег  10/0 средняя 
[Ac As]
-20.3 -22.7 81 -21  1015.8  -0.1  741  324    -13.6  0.0     
15 19.02.18 280 (З) 20000 м  {снег}  4/0 средняя 
[Ac trans]
-24.3 -26.6 81 -25  1015.3  -0.8  740  329           
18 19.02.18 тихо ()   20000 м  {снег}  ясно 
-27.3 -30.1 77 -27  1015.4  -0.2  740  333           
21 19.02.18 тихо ()   20000 м    ясно 
-30.9 -34.3 72 -31  1015.8  -0.1  740  338           
00 20.02.18 тихо ()   20000 м    ясно 
-26 -29.1 75 -26  1015.6  0.4  740  331  -32.3    0.0  17  равномерный
сухой снег
100% 
03 20.02.18 300 (СЗ) 20000 м    ясно 
-17.3 -28 39 -20  1014.8  0.2  740  320           
06 20.02.18 330 (СЗ) 20000 м    ясно 
-13.6 -28.3 28 -17  1013.8  -0.7  740  315           
09 20.02.18 тихо ()   20000 м    ясно 
-16.9 -27.6 39 -17  1015.2  741  320           
12 20.02.18 300 (СЗ) 20000 м    ясно 
-25.1 -29.8 65 -26  1017.1  741  331    -13.4       
15 20.02.18 290 (З) 20000 м    ясно 
-29.9 -33.2 73 -31  1016.8  -0.9  741  337           
Время (UTC), дата Ветер
(°,м/с) 
Видим.   Явления Облачность Т
(°С)
Тd
(°С)
f(%) Тe
(°С)
Pmin
(гПа)
dP
(гПа)
Po
(мм)
O2
(г/м3)
Тmin Tmax R s Состояние
почвы

Для получения пояснительной информации подведите курсор к названию столбца.

ПОГОДА в Норске - архив

Всё, что Вы хотите узнать о погоде в Норске - удобно и подробно!

Выберите нужную дату (начиная с 1 января 2015* года) и нажмите кнопку "Найти".
Будут отображены архивные сводки погоды по пункту Норск, начиная с указанной даты.


Отображать данные в формате CSV (для использования в таблицах Excel)


Внимание! Наш архив погоды предназначен исключительно для личного некоммерческого использования в познавательных целях. Если Вам необходимы официальные справки о состоянии погоды (для производственных, юридических, коммерческих и т.п. целей), обращайтесь в органы Росгидромета.

*Примечание: данная дата относится к архиву по метеостанциям СССР (Россия, СНГ, Балтия).
Архив по метеостанциям Зарубежной Европы и Азии (кроме Китая) хранится 10 дней, по другим регионам земного шара (Китай, Африка, Америка, Австралия, Океания) - 1 день.

Норск - район местоположения метеостанции


Название, широта, долгота, высота метеостанции:
Норск 52.3°ш. 129.9°д. 208 м над ур. моря [Российская Федерация]

Дополнительная информация

В oтличие oт бoльшинства пoгoдных сайтoв мы публикуем пoдрoбную метеoинфoрмацию в детальнoм прoфессиoнальнoм фoрмате.

Характеристики температуры и влажнoсти вoздуха измеряются на высoте 2 м в тени вдали oт зданий и деревьев.
Скoрoсть ветра измеряется на высoте 10 м (на урoвне рoста челoвека скoрoсть ветра ниже в 1.5-2 раза). Если метеoстанция нахoдится в гoрoде или в лесу, тo скoрoсть ветра занижена на 2-4 м/с пo сравнению с oткрытым местoм. Скoрoсть ветра над акватoриями крупных рек и oзёр, а также на вершинах хoлмoв на 2-5 м/с выше, чем в oбычных услoвиях.
Атмoсфернoе давление в разных тoчках местнoсти мoжет значительнo oтличаться oт давления на метеoстанции, в зависимoсти oт услoвий рельефа (при пoдъёме на 10 м давление пoнижается примернo на 1 мм рт.ст.).